This demonstration page uses our WeatherBlox Daily Observations layout. Learn more.

Left ArrowRight Arrow

36.17497, -115.13722

Hourly Observations for April 6, 2016

Temp ( °F °C ) Dew Point ( °F °C ) Humidity (%) Winds ( mph kmh ) Pressure ( in mb ) Visibility ( mi km ) Precip ( " mm )
12:53 am 00:53 Clear 73 22.8 20 -6.7 13 13 ENE 13 20 30.22 1024 10 16.0934 0 0
1:53 am 01:53 Clear 69 20.6 21 -6.1 16 16 ESE 12 19 30.23 1024 10 16.0934 0 0
2:53 am 02:53 Clear 66 18.9 21 -6.1 18 18 ESE 8 13 30.24 1024 10 16.0934 0 0
3:53 am 03:53 Clear 66 18.9 21 -6.1 18 18 ESE 8 13 30.24 1024 10 16.0934 0 0
4:53 am 04:53 Clear 64 17.8 22 -5.6 20 20 S 3 6 30.26 1025 10 16.0934 0 0
5:53 am 05:53 Clear 61 16.1 23 -5 23 23 Calm 30.27 1025 10 16.0934 0 0
6:53 am 06:53 Sunny 61 16.1 26 -3.3 26 26 NW 7 11 30.29 1026 10 16.0934 0 0
7:53 am 07:53 Sunny 66 18.9 23 -5 19 19 N 6 9 30.31 1026 10 16.0934 0 0
8:53 am 08:53 Sunny 69 20.6 24 -4.4 18 18 NNE 5 7 30.31 1026 10 16.0934 0 0
9:53 am 09:53 Sunny 73 22.8 23 -5 15 15 N 8 13 30.31 1026 10 16.0934 0 0
10:53 am 10:53 Sunny 75 23.9 23 -5 14 14 N 3 6 30.3 1026 10 16.0934 0 0
11:53 am 11:53 Sunny 75 23.9 22 -5.6 14 14 Calm 30.27 1025 10 16.0934 0 0
12:53 pm 12:53 Sunny 80 26.7 21 -6.1 11 11 VRB 6 9 30.23 1024 10 16.0934 0 0
1:53 pm 13:53 Sunny 82 27.8 20 -6.7 10 10 Calm 30.18 1022 10 16.0934 0 0
2:53 pm 14:53 Sunny 85 29.4 20 -6.7 9 9 VRB 7 11 30.15 1021 10 16.0934 0 0
3:53 pm 15:53 Sunny 84 28.9 21 -6.1 10 10 WNW 5 7 30.11 1020 10 16.0934 0 0
4:53 pm 16:53 Sunny 86 30 21 -6.1 9 9 NNE 7 11 30.08 1019 10 16.0934 0 0
5:53 pm 17:53 Sunny 85 29.4 20 -6.7 9 9 E 14 22 30.06 1018 10 16.0934 0 0
6:53 pm 18:53 Sunny 83 28.3 20 -6.7 10 10 ENE 10 17 30.05 1018 10 16.0934 0 0
7:53 pm 19:53 Clear 81 27.2 21 -6.1 11 11 ENE 9 15 30.05 1018 10 16.0934 0 0
8:53 pm 20:53 Clear 79 26.1 21 -6.1 11 11 NE 5 7 30.06 1018 10 16.0934 0 0
9:53 pm 21:53 Clear 76 24.4 23 -5 14 14 WNW 3 6 30.06 1018 10 16.0934 0 0
10:53 pm 22:53 Clear 73 22.8 26 -3.3 17 17 Calm 30.06 1018 10 16.0934 0 0
11:53 pm 23:53 Clear 71 21.7 26 -3.3 19 19 WNW 6 9 30.06 1018 10 16.0934 0 0

Powered by AerisWeather